Погода в Бродецком

Украина / Винницкая область     49°45′27″N   28°37′25″E
темп.,
°C
ветер,
м/с
пор.,
м/с
влажн.,
%
обл.,
%
осадки,
мм/ч
давл.,
гПа
погр.,
м
13 мая, чт
чт1300:00+7юв33847 0.0 101251
03:00+6ююв3491100 0.0 101166
06:00+5ююв379467 0.0 1009146
09:00+11ююв586966 0.0 1008714
12:00+11ююв7107398 0.0 10081007
15:00+11ююв8117798 0.0 1007959
18:00+14ююв61177100 0.0 10061018
21:00+10ю61387100 0.0 1007608
14 мая, пт
пт1400:00+10ююв6138898 0.0 1007558
03:00+10ююв6128098 0.0 1006391
06:00+10ююв4118092 0.0 1006342
09:00+13ююв577452 0.0 1006467
12:00+17ююв6765100 0.3 10061195
15:00+15ю6671100 0.3 1006908
18:00+13юз5780100 0.0 1006480
21:00+12ююз4891100 0.1 1006267
15 мая, сб
сб1500:00+12зюз4890100 0.2 1007235
03:00+8зюз369531 0.2 1009108
06:00+7юз379496 0.0 1010142
09:00+12юз578266 0.0 1010704
12:00+11юз4894100 0.5 1012427
15:00+12з678898 1.1 1013552
18:00+15зюз357219 0.0 1012676
21:00+11ю22881 0.0 101214
16 мая, вс
вс1600:00+10ю22915 0.0 101323
03:00+9ю22915 0.0 101318
06:00+9юв22917 0.0 101326
09:00+15юв4575100 0.0 1013377
12:00+20юв456033 0.0 10121026
15:00+21ююв6655100 0.1 10111848
18:00+19юв4668100 0.4 1010999
21:00+15вюв3581100 0.7 100955
17 мая, пн
пн1700:00+13юв338599 0.0 100930
03:00+12ю2288100 0.0 100817
06:00+12юз1185100 0.0 100810
09:00+15сз4583100 0.0 1008346
12:00+18с3375100 0.0 1008848
15:00+17сз6681100 1.0 1008722
18:00+17ссз3475100 0.3 1008713
21:00+13сз359292 0.3 100992